Content
SEND FEEDBACK

Daily
Averages
Monthly
Summary
United States of America

BROOKINGS, SOUTH DAKOTA


Home > North America > United States > South Dakota
Elevation: 1637 feet     Latitude: 44 18N     Longitude: 096 49W

WEATHER
 
SELECT A DAY
Number of Records: 439,384;   Date Range: 1/1/95 - 8/5/13
 
SHARE

PRINT THIS DATA

[ ← Previous Day ]
WEATHER ALMANAC - JANUARY 31, 2013
[ Next Day → ]
[ °C ]   °F
Weather ElementAverageHighLow
Temperature-8.9 °F-5.8 °F (12:35 am)-11.2 °F (7:35 am)
Dewpoint-13.9 °F (1:15 am)-16.6 °F (7:15 am)
Humidity77.5 %100 % (3:35 am)71 % (12:35 am)
Barometer30.13 in30.29 in (8:35 pm)29.87 in (12:35 am)
Wind Speed16.6 mph26.5 mph (12:15 pm)
Wind Gust32.2 mph (10:35 am)
Weather ElementAverage
Visibility9.3 mi
Wind DirectionNW (316.3 °)

Weather ElementTotal
Precipitation---
Heating Degree Days73.5 (Base 65)
Averaged from 70 records on January 31, 2013
WEATHER CONDITIONS BREAKOUT
WIND DIRECTION BREAKOUT
WEATHER BY HOUR - JANUARY 31, 2013
[ °C ]   °F
Local TimeTemperatureDewpointHumidityBarometerVisibilityWind DirectionWind SpeedGust SpeedPrecipitationEventsConditions
12:35 AM-5.8 °F-13.0 °F71 %29.87 in10.0 miNNW (330°)20.7 mphOvercast
12:55 AM-7.6 °F-13.0 °F77 %29.87 in10.0 miNNW (330°)19.6 mph24.2 mphOvercast
1:15 AM-7.6 °F0.0 °F29.89 in10.0 miNNW (330°)15.0 mph26.5 mphMostly Cloudy
1:35 AM-7.6 °F-13.0 °F77 %29.89 in10.0 miNNW (330°)19.6 mph24.2 mphMostly Cloudy
1:55 AM-7.6 °F-14.8 °F71 %29.90 in10.0 miNNW (330°)15.0 mph19.6 mphMostly Cloudy
2:15 AM-7.6 °F-11.2 °F84 %29.91 in10.0 miNW (320°)12.7 mphOvercast
2:35 AM-7.6 °F-14.8 °F71 %29.91 in10.0 miNNW (330°)15.0 mphOvercast
2:55 AM-9.4 °F-11.2 °F92 %29.92 in10.0 miNW (320°)10.4 mph17.3 mphOvercast
3:15 AM-9.4 °F-14.8 °F77 %29.92 in10.0 miNW (320°)13.8 mphOvercast
3:35 AM-9.4 °F-9.4 °F100 %29.93 in10.0 miNW (320°)12.7 mphOvercast
3:55 AM-7.6 °F-14.8 °F71 %29.94 in10.0 miNW (310°)15.0 mph19.6 mphOvercast
4:15 AM-7.6 °F-11.2 °F84 %29.95 in10.0 miNW (320°)18.4 mph23.0 mphOvercast
4:35 AM-9.4 °F-14.8 °F77 %29.95 in10.0 miNW (320°)19.6 mph25.3 mphOvercast
4:55 AM-9.4 °F-14.8 °F77 %29.95 in10.0 miNW (320°)18.4 mphOvercast
5:15 AM-9.4 °F-14.8 °F77 %29.97 in10.0 miNW (320°)15.0 mphOvercast
5:35 AM-9.4 °F-13.0 °F84 %29.97 in10.0 miNW (320°)20.7 mphOvercast
5:55 AM-9.4 °F-14.8 °F77 %29.99 in10.0 miNW (320°)19.6 mphOvercast
6:15 AM-9.4 °F-14.8 °F77 %30.00 in10.0 miNW (320°)20.7 mph25.3 mphOvercast
6:35 AM-9.4 °F-13.0 °F84 %30.01 in10.0 miNNW (330°)19.6 mphOvercast
6:55 AM-9.4 °F-14.8 °F77 %30.03 in10.0 miNNW (340°)17.3 mph23.0 mphOvercast
7:15 AM-9.4 °F-16.6 °F71 %30.04 in9.0 miNNW (330°)17.3 mphMostly Cloudy
7:35 AM-11.2 °F-14.8 °F84 %30.05 in10.0 miNNW (330°)17.3 mph20.7 mphMostly Cloudy
7:55 AM-9.4 °F-14.8 °F77 %30.06 in10.0 miNW (320°)15.0 mph21.9 mphOvercast
8:15 AM-9.4 °F-16.6 °F71 %30.07 in8.0 miNNW (330°)21.9 mph27.6 mphOvercast
8:35 AM-11.2 °F-14.8 °F84 %30.08 in5.0 miNW (320°)21.9 mph26.5 mphMostly Cloudy
8:55 AM-9.4 °F-14.8 °F77 %30.09 in10.0 miNW (320°)20.7 mph25.3 mphOvercast
9:15 AM-9.4 °F-14.8 °F77 %30.10 in10.0 miNNW (330°)23.0 mphOvercast
9:35 AM-9.4 °F-16.6 °F71 %30.11 in7.0 miNNW (330°)20.7 mph31.1 mphOvercast
9:55 AM-9.4 °F-14.8 °F77 %30.13 in6.0 miNNW (330°)20.7 mph26.5 mphOvercast
10:15 AM-9.4 °F-14.8 °F77 %30.14 in5.0 miNNW (330°)23.0 mph29.9 mphOvercast
10:35 AM-9.4 °F-16.6 °F71 %30.15 in9.0 miNW (320°)25.3 mph32.2 mphOvercast
10:55 AM-9.4 °F-14.8 °F77 %30.16 in8.0 miNW (320°)23.0 mphOvercast
11:15 AM-9.4 °F-13.0 °F84 %30.17 in8.0 miNNW (330°)24.2 mph32.2 mphOvercast
11:35 AM-9.4 °F-16.6 °F71 %30.18 in7.0 miNW (320°)24.2 mph28.8 mphOvercast
11:55 AM-9.4 °F-11.2 °F92 %30.18 in7.0 miNNW (330°)25.3 mph31.1 mphOvercast
12:15 PM-9.4 °F-14.8 °F77 %30.19 in3.0 miNW (320°)26.5 mphOvercast
12:35 PM-9.4 °F-14.8 °F77 %30.20 in8.0 miNW (320°)23.0 mph29.9 mphOvercast
12:55 PM-7.6 °F-11.2 °F84 %30.21 in9.0 miNW (320°)19.6 mph25.3 mphOvercast
1:15 PM-7.6 °F-13.0 °F77 %30.21 in9.0 miNW (320°)24.2 mph27.6 mphOvercast
1:35 PM-7.6 °F-14.8 °F71 %30.21 in8.0 miNW (310°)23.0 mph27.6 mphOvercast
1:55 PM-7.6 °F-11.2 °F84 %30.22 in9.0 miNW (310°)21.9 mph27.6 mphMostly Cloudy
2:15 PM-7.6 °F-14.8 °F71 %30.22 in10.0 miNW (320°)19.6 mph26.5 mphScattered Clouds
2:35 PM-7.6 °F-14.8 °F71 %30.22 in10.0 miNW (320°)19.6 mph28.8 mphMostly Cloudy
2:55 PM-7.6 °F-13.0 °F77 %30.23 in10.0 miNW (310°)21.9 mph26.5 mphScattered Clouds
3:15 PM-7.6 °F-14.8 °F71 %30.23 in10.0 miNW (320°)19.6 mphPartly Cloudy
3:35 PM-7.6 °F-13.0 °F77 %30.23 in9.0 miNW (310°)19.6 mphPartly Cloudy
3:55 PM-7.6 °F-14.8 °F71 %30.24 in10.0 miNW (310°)20.7 mph25.3 mphClear
4:15 PM-7.6 °F-14.8 °F71 %30.25 in10.0 miNW (310°)19.6 mphPartly Cloudy
4:35 PM-9.4 °F-14.8 °F77 %30.24 in10.0 miNW (320°)17.3 mphScattered Clouds
4:55 PM-9.4 °F-14.8 °F77 %30.25 in10.0 miNW (320°)16.1 mphPartly Cloudy
5:15 PM-9.4 °F-16.6 °F71 %30.25 in10.0 miNW (320°)18.4 mphClear
5:35 PM-9.4 °F-16.6 °F71 %30.26 in10.0 miNW (310°)17.3 mph23.0 mphClear
5:55 PM-9.4 °F-14.8 °F77 %30.26 in10.0 miNW (310°)13.8 mphPartly Cloudy
6:15 PM-9.4 °F-16.6 °F71 %30.27 in10.0 miNW (310°)15.0 mphPartly Cloudy
6:35 PM-9.4 °F-14.8 °F77 %30.27 in10.0 miNW (320°)12.7 mph16.1 mphClear
6:55 PM-9.4 °F-14.8 °F77 %30.27 in10.0 miNW (310°)11.5 mphClear
7:15 PM-9.4 °F-14.8 °F77 %30.28 in10.0 miWNW (300°)9.2 mphClear
7:35 PM-9.4 °F-14.8 °F77 %30.28 in10.0 miWNW (300°)6.9 mphClear
7:55 PM-9.4 °F-14.8 °F77 %30.28 in10.0 miNW (310°)5.8 mphClear
8:15 PM-9.4 °F-11.2 °F92 %30.28 in10.0 miWNW (300°)8.1 mphClear
8:35 PM-9.4 °F-16.6 °F71 %30.29 in10.0 miWNW (300°)8.1 mphClear
8:55 PM-9.4 °F0.0 °F30.29 in10.0 miWNW (300°)8.1 mphClear
9:15 PM-9.4 °F-14.8 °F77 %30.28 in10.0 miWNW (300°)6.9 mphClear
9:35 PM-9.4 °F-14.8 °F77 %30.28 in10.0 miWNW (300°)9.2 mphClear
9:55 PM-9.4 °F-13.0 °F84 %30.28 in10.0 miWNW (300°)9.2 mphClear
10:15 PM-9.4 °F-14.8 °F77 %30.29 in10.0 miWNW (300°)6.9 mphClear
10:35 PM-9.4 °F-13.0 °F84 %30.29 in10.0 miWNW (290°)6.9 mphClear
10:55 PM-9.4 °F-14.8 °F77 %30.28 in10.0 miWest (280°)4.6 mphClear
11:15 PM-9.4 °F-16.6 °F71 %30.28 in10.0 miWest (280°)4.6 mphClear
11:35 PM-9.4 °F-13.0 °F84 %30.28 in10.0 miWNW (290°)4.6 mphClear
Hourly data recorded from KBKX, located miles away from Brookings, South Dakota







STORIES FROM OUR PARTNERS